Waarnemingen

Advertentie
Mijn weer
Lahr, Duitsland (10805): temperatuur & dauwpunt: 18.10.2018 00:00:00 - 24.10.2018 00:00:00 (CEST)Lahr, Duitsland (10805): temperatuur 5cm & temperatuur -5cm: 18.10.2018 00:00:00 - 24.10.2018 00:00:00 (CEST)Lahr, Duitsland (10805): temperatuur -20cm & temperatuur -100cm: 18.10.2018 00:00:00 - 24.10.2018 00:00:00 (CEST)Lahr, Duitsland (10805): windsnelheid & windstoten: 18.10.2018 00:00:00 - 24.10.2018 00:00:00 (CEST)Lahr, Duitsland (10805): windrichting: 18.10.2018 00:00:00 - 24.10.2018 00:00:00 (CEST)Lahr, Duitsland (10805): luchtdruk: 18.10.2018 00:00:00 - 24.10.2018 00:00:00 (CEST)Lahr, Duitsland (10805): zicht: 18.10.2018 00:00:00 - 24.10.2018 00:00:00 (CEST)Lahr, Duitsland (10805): Zonneschijnduur: 18.10.2018 00:00:00 - 24.10.2018 00:00:00 (CEST)Lahr, Duitsland (10805): neerslag: 18.10.2018 00:00:00 - 24.10.2018 00:00:00 (CEST)
Datum & Tijd tt [°C] td [°C] tt 5cm [°C] tt -5cm [°C] tt -20cm [°C] tt -100cm [°C] ff [km/u] ff [kn] fx [km/u] fx [kn] dd ppp [hPa] vv [km] sd [min] rr [mm]
24.10.2018 00:00:00 13,3 4,1 12,6 12,3 13,0 15,3 14 8 25 14 WZW 1028,0 59 0 0,0
23.10.2018 23:00:00 13,7 3,4 12,7 12,3 13,1 15,3 14 7 25 13 W 1028,3 63 0 0,0
23.10.2018 22:00:00 13,1 4,6 12,2 12,4 13,1 15,3 6 3 16 9 Z 1027,8 41 0 0,0
23.10.2018 21:00:00 13,4 6,9 12,7 12,5 13,2 15,3 10 6 15 8 ZZW 1027,0 15 0 0,0
23.10.2018 20:00:00 13,9 6,8 12,4 13,0 13,1 15,4 11 6 19 10 ZZW 1026,6 16 0 0,0
23.10.2018 19:00:00 14,2 6,8 13,3 13,5 13,1 15,4 8 5 22 12 ZZW 1026,6 15 0 0,0
23.10.2018 18:00:00 14,6 6,7 14,3 14,2 12,9 15,4 18 10 29 16 ZZW 1026,1 10 31 0,0
23.10.2018 17:00:00 14,8 6,8 15,2 14,2 12,8 15,4 18 10 24 13 ZZW 1026,8 10 26 0,0
23.10.2018 16:00:00 14,0 6,6 14,6 14,5 12,5 15,4 18 10 26 14 ZW 1027,3 34 0 0,0
23.10.2018 15:00:00 13,7 5,7 14,7 15,1 12,2 15,4 14 8 25 14 ZW 1028,1 37 26 0,0
23.10.2018 14:00:00 12,9 6,4 15,2 14,8 11,9 15,4 8 4 14 8 ZZW 1029,7 26 33 0,0
23.10.2018 13:00:00 12,0 6,4 15,5 12,6 11,7 15,4 8 4 12 7 Z 1030,7 10 19 0,0
23.10.2018 12:00:00 10,5 6,6 11,9 11,5 11,6 15,4 9 5 13 7 ZW 1031,1 15 0 0,0
23.10.2018 11:00:00 9,4 6,2 11,1 10,2 11,6 15,4 7 4 12 7 ZZW 1031,4 16 8 0,0
23.10.2018 10:00:00 7,1 5,5 6,9 8,7 11,7 15,4 3 1 5 3 Z 1031,7 8 0 0,0
23.10.2018 09:00:00 4,6 3,9 3,7 7,9 11,9 15,5 5 3 15 8 N 1031,8 6 0 0,0
23.10.2018 08:00:00 4,7 4,4 2,7 7,9 12,1 15,5 8 5 14 8 Z 1030,2 7 0 0,0
23.10.2018 07:00:00 4,6 4,3 1,3 8,6 12,2 15,5 4 2 6 4 WZW 1031,2 8 0 0,0
23.10.2018 06:00:00 6,5 6,0 4,4 9,3 12,4 15,5 4 2 5 3 ONO 1031,9 7 0 0,0
23.10.2018 05:00:00 7,9 6,5 6,0 9,8 12,5 15,5 5 3 7 4 O 1031,7 15 0 0,0
23.10.2018 04:00:00 7,2 5,7 4,0 10,2 12,6 15,5 5 3 9 5 NNW 1031,5 27 0 0,0
23.10.2018 03:00:00 10,4 7,0 8,2 11,3 12,7 15,5 5 3 11 6 N 1031,5 53 0 0,0
23.10.2018 02:00:00 10,8 7,3 10,3 11,5 12,7 15,5 10 6 14 8 N 1031,8 41 0 0,0
23.10.2018 01:00:00 11,0 7,7 10,4 11,6 12,7 15,5 8 4 20 11 NNO 1032,0 32 0 0,0
23.10.2018 00:00:00 11,1 8,1 10,6 11,8 12,8 15,6 10 6 23 12 NO 1032,1 17 0 0,0
22.10.2018 23:00:00 11,4 8,0 11,0 11,9 12,8 15,6 18 10 32 17 NNO 1031,9 16 0 0,0
22.10.2018 22:00:00 12,3 7,9 11,7 12,2 12,8 15,6 22 12 42 23 NNO 1031,2 14 0 0,0
22.10.2018 21:00:00 13,5 6,8 12,9 12,2 12,9 15,6 22 12 34 18 NO 1030,9 27 0 0,0
22.10.2018 20:00:00 12,0 4,9 9,9 12,5 12,8 15,6 10 6 18 10 NNO 1030,2 37 0 0,0
22.10.2018 19:00:00 13,6 4,1 12,6 13,2 12,7 15,6 13 7 28 15 N 1029,5 10 3 0,0
22.10.2018 18:00:00 14,9 3,3 14,1 14,2 12,5 15,6 21 11 35 19 NNO 1028,5 56 19 0,0
22.10.2018 17:00:00 16,2 3,0 16,3 15,1 12,2 15,6 24 13 34 18 NNO 1028,1 38 60 0,0
22.10.2018 16:00:00 16,5 3,2 17,8 15,5 11,8 15,6 25 13 31 17 NNO 1027,6 28 60 0,0
22.10.2018 15:00:00 16,3 2,9 18,6 15,0 11,4 15,6 20 11 30 16 NNO 1027,8 33 49 0,0
22.10.2018 14:00:00 14,2 3,0 14,7 13,8 11,0 15,6 19 10 25 13 NNO 1028,1 42 18 0,0
22.10.2018 13:00:00 12,4 3,2 13,7 13,3 10,6 15,7 11 6 18 10 NNW 1028,2 10 51 0,0
22.10.2018 12:00:00 10,2 3,1 13,2 10,3 10,4 15,7 5 3 14 8 NO 1028,3 10 60 0,0
22.10.2018 11:00:00 7,4 3,5 9,9 7,1 10,5 15,7 11 6 15 8 NO 1028,9 19 60 0,0
22.10.2018 10:00:00 5,3 3,4 4,5 5,5 10,6 15,7 8 5 11 6 NO 1028,6 12 60 0,0
22.10.2018 09:00:00 2,0 1,0 0,0 4,9 10,8 15,7 2 1 6 4 N 1027,9 5 29 0,0
22.10.2018 08:00:00 1,2 0,9 -1,9 5,0 11,1 15,7 2 1 8 4 N 1027,5 2,9 0 0,0
22.10.2018 07:00:00 1,1 0,9 -2,2 5,3 11,3 15,7 7 4 8 4 N 1027,1 4,8 0 0,0
22.10.2018 06:00:00 1,8 1,6 -2,7 5,7 11,6 15,7 6 4 9 5 NO 1026,6 7 0 0,0
22.10.2018 05:00:00 -1,0 -2,0 -2,7 6,2 11,8 15,7 10 5 12 6 NO 1026,4 6 0 0,0
22.10.2018 04:00:00 1,7 1,2 -1,7 6,7 12,1 15,7 3 2 5 3 NO 1026,0 6 0 0,0
22.10.2018 03:00:00 3,6 3,2 -1,0 7,3 12,3 15,7 3 2 6 3 O 1026,2 6 0 0,0
22.10.2018 02:00:00 5,0 4,5 1,5 7,9 12,6 15,7 4 2 11 6 Z 1026,2 10 0 0,0
22.10.2018 01:00:00 6,2 2,9 3,1 8,2 12,8 15,8 4 2 13 7 NW 1026,0 19 0 0,0
22.10.2018 00:00:00 5,1 2,7 2,1 8,7 13,1 15,8 6 3 11 6 NO 1026,0 15 0 0,0
21.10.2018 23:00:00 6,0 4,2 2,8 9,4 13,3 15,8 3 2 9 5 NO 1025,9 11 0 0,0
21.10.2018 22:00:00 6,9 4,7 4,3 10,2 13,5 15,8 4 2 13 7 W 1025,7 13 0 0,0
21.10.2018 21:00:00 8,0 5,0 3,7 11,1 13,7 15,8 6 3 9 5 NNO 1025,5 14 0 0,0
21.10.2018 20:00:00 9,8 5,9 5,9 12,3 13,8 15,8 5 3 16 8 N 1025,2 17 0 0,0
21.10.2018 19:00:00 11,9 6,1 8,4 13,6 13,8 15,8 11 6 17 9 ONO 1025,0 21 6 0,0
21.10.2018 18:00:00 15,2 6,8 13,7 15,3 13,6 15,8 15 8 23 12 N 1024,7 24 60 0,0
21.10.2018 17:00:00 16,6 7,4 16,8 16,4 13,3 15,8 16 9 22 12 NNO 1025,0 18 60 0,0
21.10.2018 16:00:00 16,2 7,3 18,1 16,9 12,9 15,8 14 8 21 11 NNO 1025,4 16 60 0,0
21.10.2018 15:00:00 15,1 7,8 18,1 16,5 12,5 15,8 11 6 19 10 NNO 1026,0 12 60 0,0
21.10.2018 14:00:00 11,9 7,5 15,9 15,1 12,2 15,8 10 5 16 9 NO 1027,0 8 59 0,0
21.10.2018 13:00:00 9,3 7,3 13,0 12,6 12,0 15,8 8 4 14 8 ONO 1028,0 3,0 22 0,0
21.10.2018 12:00:00 7,3 6,8 9,1 11,0 11,9 15,8 6 3 12 7 NNO 1028,6 3,0 0 0,0
21.10.2018 11:00:00 6,5 6,5 7,5 10,0 11,8 15,8 7 4 10 5 NNO 1029,1 0,4 0 0,0
21.10.2018 10:00:00 6,2 6,2 7,0 9,2 11,9 15,9 7 4 10 5 ONO 1029,1 0,2 0 0,0
21.10.2018 09:00:00 5,6 5,6 6,0 8,5 12,0 15,9 5 3 8 5 NNO 1028,8 0,1 0 0,0
21.10.2018 08:00:00 4,0 4,0 4,1 8,0 12,1 15,9 0 0 7 4 N 1029,0 0,2 0 0,0
21.10.2018 07:00:00 4,2 4,2 4,2 7,9 12,3 15,9 3 2 8 4 NNO 1028,8 0,1 0 0,0
21.10.2018 06:00:00 2,7 2,7 0,3 7,6 12,5 15,9 5 3 7 4 NNO 1028,8 0,8 0 0,0
21.10.2018 05:00:00 2,5 2,5 0,6 8,1 12,7 15,9 3 2 5 3 NO 1028,6 0,1 0 0,0
21.10.2018 04:00:00 3,8 3,8 1,3 8,5 12,9 15,9 2 1 5 3 ONO 1028,9 0,1 0 0,0
21.10.2018 03:00:00 3,5 3,5 2,8 8,8 13,1 15,9 7 4 9 5 NO 1029,3 0,1 0 0,0
21.10.2018 02:00:00 4,8 4,8 2,6 9,3 13,3 15,9 5 3 6 3 ONO 1029,6 0,1 0 0,0
21.10.2018 01:00:00 6,3 6,1 3,0 9,9 13,4 15,9 2 1 5 3 Z 1029,5 2,0 0 0,0
21.10.2018 00:00:00 8,3 8,3 5,9 10,4 13,6 15,9 4 2 7 4 ZW 1029,4 1,0 0 0,0
20.10.2018 23:00:00 7,4 7,2 6,5 10,7 13,8 15,9 4 2 5 3 W 1029,7 0,5 0 0,0
20.10.2018 22:00:00 8,6 8,5 5,3 11,1 14,0 15,9 2 1 6 3 NO 1029,3 1,3 0 0,0
20.10.2018 21:00:00 9,6 9,6 7,5 11,7 14,2 15,9 6 3 7 4 NO 1028,8 0,9 0 0,0
20.10.2018 20:00:00 10,0 9,4 6,3 12,5 14,2 15,9 0 0 5 3 N 1028,6 1,8 0 0,0
20.10.2018 19:00:00 11,9 10,7 7,8 13,7 14,2 15,9 4 2 5 3 NNO 1028,1 2,2 0 0,0
20.10.2018 18:00:00 13,9 10,8 12,2 15,2 14,1 15,9 4 2 6 3 NNO 1028,0 3,6 14 0,0
20.10.2018 17:00:00 14,3 10,7 14,7 15,8 13,9 15,9 4 2 9 5 - 1028,1 5 55 0,0
20.10.2018 16:00:00 13,2 10,3 15,4 15,7 13,6 15,9 6 3 10 5 ONO 1028,6 3,4 35 0,0
20.10.2018 15:00:00 12,0 10,1 13,8 14,7 13,5 16,0 5 3 9 5 ONO 1029,0 2,7 0 0,0
20.10.2018 14:00:00 10,6 9,6 12,7 13,8 13,3 16,0 4 2 9 5 ZZO 1029,4 2,1 0 0,0
20.10.2018 13:00:00 10,5 10,3 11,6 13,3 13,2 16,0 3 1 8 4 ZZW 1029,9 1,2 0 0,0
20.10.2018 12:00:00 9,9 9,9 11,2 12,7 13,1 16,0 5 3 8 4 - 1029,9 0,2 0 0,0
20.10.2018 11:00:00 9,4 9,4 10,6 12,0 13,1 16,0 2 1 9 5 - 1029,6 0,2 0 0,0
20.10.2018 10:00:00 9,1 9,1 9,8 11,4 13,1 16,0 4 2 8 5 WZW 1029,0 0,2 0 0,0
20.10.2018 09:00:00 9,3 9,3 9,5 11,0 13,1 16,0 5 3 8 4 ZW 1028,1 0,1 0 0,0
20.10.2018 08:00:00 8,6 8,6 8,6 10,7 13,1 16,0 5 3 8 5 WZW 1027,5 0,1 0 0,0
20.10.2018 07:00:00 7,7 7,5 7,9 10,4 13,2 16,0 2 1 5 3 N 1027,0 1,6 0 0,0
20.10.2018 06:00:00 7,0 6,9 7,0 9,8 13,4 16,0 5 3 7 4 O 1026,9 1,4 0 0,0
20.10.2018 05:00:00 6,9 6,7 4,6 9,7 13,6 16,0 7 4 10 5 WZW 1025,7 2,1 0 0,0
20.10.2018 04:00:00 6,1 5,8 5,5 9,8 13,8 16,0 2 1 9 5 WNW 1025,7 1,5 0 0,0
20.10.2018 03:00:00 7,0 7,0 5,1 10,1 14,0 16,0 5 3 8 4 Z 1025,3 1,9 0 0,0
20.10.2018 02:00:00 7,2 7,0 4,5 10,5 14,2 16,0 0 0 5 3 N 1025,1 0,8 0 0,0
20.10.2018 01:00:00 8,3 8,2 4,6 11,0 14,4 16,0 4 2 8 4 W 1024,9 2,4 0 0,0
20.10.2018 00:00:00 9,0 8,8 5,0 11,5 14,7 16,0 4 2 7 4 Z 1024,7 2,2 0 0,0
19.10.2018 23:00:00 9,7 9,2 7,5 12,0 14,9 16,0 6 3 8 4 WZW 1024,5 3,3 0 0,0
19.10.2018 22:00:00 10,9 10,2 8,4 12,5 15,1 16,0 6 3 8 4 ZW 1023,8 2,8 0 0,0
19.10.2018 21:00:00 10,9 9,6 7,0 13,3 15,3 16,0 4 2 5 3 WZW 1023,1 3,4 0 0,0
19.10.2018 20:00:00 11,9 9,3 7,8 14,3 15,4 16,0 2 1 9 5 - 1022,4 4,7 0 0,0
19.10.2018 19:00:00 13,8 10,1 9,8 15,7 15,4 16,0 9 5 16 9 N 1021,6 10 0 0,0
19.10.2018 18:00:00 17,2 11,0 16,0 17,4 15,2 16,0 12 7 22 12 N 1021,0 7 58 0,0
19.10.2018 17:00:00 18,5 11,0 18,8 18,5 14,9 16,0 17 9 22 12 NNO 1020,9 8 60 0,0
19.10.2018 16:00:00 18,4 11,2 20,4 18,9 14,6 16,1 12 6 23 13 NNO 1020,8 8 60 0,0
19.10.2018 15:00:00 17,1 10,7 20,2 18,6 14,2 16,1 16 9 22 12 NO 1021,4 7 60 0,0
19.10.2018 14:00:00 15,2 10,7 18,8 17,5 13,9 16,1 13 7 18 10 NNO 1021,9 9 60 0,0
19.10.2018 13:00:00 13,2 9,9 17,0 15,5 13,7 16,1 15 8 22 12 NNO 1022,6 6 35 0,0
19.10.2018 12:00:00 11,5 10,1 13,5 13,8 13,6 16,1 9 5 14 7 NNO 1022,9 3,4 0 0,0
19.10.2018 11:00:00 10,4 10,2 11,6 12,7 13,5 16,1 9 5 15 8 N 1023,2 1,7 0 0,0
19.10.2018 10:00:00 9,8 9,8 10,1 12,1 13,5 16,1 8 4 11 6 N 1023,0 0,5 0 0,0
19.10.2018 09:00:00 10,0 10,0 10,2 11,7 13,6 16,1 8 4 12 6 NNO 1022,4 0,2 0 0,0
19.10.2018 08:00:00 9,8 9,8 9,8 11,4 13,6 16,1 11 6 13 7 N 1021,6 0,6 0 0,0
19.10.2018 07:00:00 10,0 9,9 9,7 11,0 13,7 16,1 6 3 12 6 NO 1021,1 1,4 0 0,0
19.10.2018 06:00:00 8,7 8,7 8,4 10,4 13,9 16,1 6 3 7 4 NO 1021,0 1,1 0 0,0
19.10.2018 05:00:00 6,9 6,9 4,4 10,3 14,1 16,1 4 2 6 4 NO 1021,1 0,2 0 0,0
19.10.2018 04:00:00 8,9 8,9 4,5 10,8 14,3 16,1 3 2 6 4 NO 1021,0 0,1 0 0,0
19.10.2018 03:00:00 10,6 10,2 8,5 11,1 14,5 16,1 7 4 10 5 NNW 1021,0 2,9 0 0,0
19.10.2018 02:00:00 9,9 9,8 6,5 11,6 14,8 16,1 6 3 12 7 NO 1021,1 0,2 0 0,0
19.10.2018 01:00:00 10,5 9,9 7,3 12,1 15,0 16,1 7 4 10 5 N 1021,0 3,2 0 0,0
19.10.2018 00:00:00 11,3 10,3 7,7 12,7 15,2 16,1 10 5 11 6 N 1020,8 4,5 0 0,0
18.10.2018 23:00:00 11,7 10,4 8,3 13,5 15,3 16,1 9 5 11 6 N 1020,8 5 0 0,0
18.10.2018 22:00:00 14,2 11,5 12,3 14,3 15,4 16,1 13 7 22 12 NO 1020,4 8 0 0,0
18.10.2018 21:00:00 16,0 12,0 14,0 14,8 15,6 16,1 15 8 23 13 NO 1019,8 11 0 0,0
18.10.2018 20:00:00 17,2 11,8 15,3 15,6 15,6 16,1 13 7 24 13 NO 1019,1 10 0 0,0
18.10.2018 19:00:00 17,2 11,1 15,0 16,6 15,5 16,2 11 6 24 13 NO 1018,3 20 0 0,0
18.10.2018 18:00:00 19,0 11,3 17,5 18,1 15,3 16,2 18 10 31 17 NNO 1017,7 22 47 0,0
18.10.2018 17:00:00 21,2 11,4 21,2 19,3 15,0 16,2 24 13 34 18 NNO 1017,7 17 60 0,0
18.10.2018 16:00:00 21,5 11,4 22,7 19,8 14,5 16,2 18 10 28 15 N 1017,8 10 60 0,0
18.10.2018 15:00:00 21,0 10,9 23,7 19,5 14,1 16,2 16 8 24 13 NNO 1018,1 14 60 0,0
18.10.2018 14:00:00 19,5 11,0 22,7 18,0 13,7 16,2 16 8 24 13 NNO 1018,9 11 60 0,0
18.10.2018 13:00:00 16,2 10,3 18,7 16,1 13,3 16,2 14 8 19 11 NNO 1019,7 9 60 0,0
18.10.2018 12:00:00 14,6 10,1 17,5 14,2 13,1 16,2 9 5 14 8 N 1020,1 9 60 0,0
18.10.2018 11:00:00 12,3 9,6 14,0 12,0 13,1 16,2 9 5 10 6 N 1020,3 10 60 0,0
18.10.2018 10:00:00 9,7 8,8 10,0 10,3 13,2 16,2 3 2 5 3 ONO 1020,2 6 31 0,0
18.10.2018 09:00:00 6,6 6,6 5,7 9,4 13,4 16,2 3 2 9 5 NNO 1019,9 1,3 0 0,0
18.10.2018 08:00:00 5,6 5,6 3,0 9,4 13,6 16,2 0 0 4 2 N 1019,6 10 0 0,0
18.10.2018 07:00:00 5,8 5,7 3,3 9,8 13,8 16,2 3 2 4 2 O 1019,3 0,4 0 0,0
18.10.2018 06:00:00 6,6 6,4 3,7 10,1 13,9 16,2 3 2 4 2 NNO 1018,9 9 0 0,0
18.10.2018 05:00:00 7,4 7,3 4,3 10,4 14,1 16,2 1 1 3 2 ONO 1018,8 3,4 0 0,0
18.10.2018 04:00:00 8,0 8,0 5,0 10,7 14,3 16,2 2 1 4 2 ONO 1018,7 0,4 0 0,0
18.10.2018 03:00:00 7,6 7,3 5,7 11,1 14,5 16,2 3 2 5 3 NW 1018,8 1,2 0 0,0
18.10.2018 02:00:00 7,2 6,9 6,0 11,5 14,7 16,2 6 4 9 5 ONO 1018,8 3,3 0 0,0
18.10.2018 01:00:00 9,3 8,6 6,4 11,9 14,9 16,2 3 2 5 3 ZZO 1018,9 3,6 0 0,0
18.10.2018 00:00:00 10,0 9,2 7,0 12,3 15,2 16,2 3 2 4 2 ZZW 1018,9 7 0 0,0

tt = temperatuur
td = dauwpunt
tt 5cm = temperatuur 5cm
tt -5cm = temperatuur -5cm
tt -20cm = temperatuur -20cm
tt -100cm = temperatuur -100cm
ff = windsnelheid
fx = windstoten
dd = windrichting
ppp = luchtdruk
vv = zicht
sd = Zonneschijnduur
rr = neerslag

Weerstations in de omgeving